TimePDT,TemperatureF,Dew PointF,Humidity,Sea Level PressureIn,VisibilityMPH,Wind Direction,Wind SpeedMPH,Gust SpeedMPH,PrecipitationIn,Events,Conditions,WindDirDegrees,DateUTC
12:53 AM,75.0,52.0,44,29.87,10.0,NW,5.8,-,N/A,,Clear,320,2013-08-03 07:53:00
1:53 AM,70.0,53.1,55,29.87,10.0,NNW,5.8,-,N/A,,Clear,330,2013-08-03 08:53:00
2:53 AM,70.0,52.0,53,29.87,10.0,NW,3.5,-,N/A,,Clear,320,2013-08-03 09:53:00
3:53 AM,69.1,52.0,54,29.87,10.0,NNW,4.6,-,N/A,,Clear,330,2013-08-03 10:53:00
4:53 AM,66.9,52.0,59,29.87,10.0,Calm,Calm,-,N/A,,Partly Cloudy,0,2013-08-03 11:53:00
5:53 AM,66.0,52.0,60,29.88,10.0,Calm,Calm,-,N/A,,Scattered Clouds,0,2013-08-03 12:53:00
6:53 AM,66.9,53.1,61,29.90,10.0,Calm,Calm,-,N/A,,Scattered Clouds,0,2013-08-03 13:53:00
7:53 AM,72.0,51.1,48,29.91,10.0,Calm,Calm,-,N/A,,Scattered Clouds,0,2013-08-03 14:53:00
8:53 AM,77.0,48.0,36,29.92,10.0,SE,4.6,-,N/A,,Scattered Clouds,130,2013-08-03 15:53:00
9:53 AM,81.0,46.9,30,29.91,9.0,SE,6.9,-,N/A,,Scattered Clouds,140,2013-08-03 16:53:00
10:53 AM,84.0,48.0,28,29.91,10.0,South,3.5,-,N/A,,Mostly Cloudy,180,2013-08-03 17:53:00
11:53 AM,89.1,46.9,23,29.90,10.0,SW,4.6,-,N/A,,Scattered Clouds,220,2013-08-03 18:53:00
12:53 PM,91.9,44.1,19,29.89,10.0,WSW,8.1,-,N/A,,Scattered Clouds,250,2013-08-03 19:53:00
1:53 PM,93.9,43.0,17,29.88,10.0,WSW,9.2,-,N/A,,Partly Cloudy,240,2013-08-03 20:53:00
2:53 PM,96.1,39.9,14,29.87,10.0,WSW,5.8,-,N/A,,Partly Cloudy,240,2013-08-03 21:53:00
3:53 PM,97.0,39.0,13,29.85,10.0,Variable,4.6,-,N/A,,Scattered Clouds,0,2013-08-03 22:53:00
4:53 PM,97.0,39.0,13,29.84,10.0,WNW,5.8,-,N/A,,Scattered Clouds,290,2013-08-03 23:53:00
5:53 PM,95.0,39.0,14,29.82,10.0,Variable,4.6,-,N/A,,Partly Cloudy,0,2013-08-04 00:53:00
6:53 PM,95.0,39.9,15,29.82,10.0,NW,9.2,-,N/A,,Partly Cloudy,310,2013-08-04 01:53:00
7:53 PM,90.0,43.0,19,29.83,10.0,WNW,9.2,-,N/A,,Partly Cloudy,300,2013-08-04 02:53:00
8:53 PM,87.1,42.1,21,29.84,10.0,NW,6.9,-,N/A,,Clear,310,2013-08-04 03:53:00
9:53 PM,84.0,42.1,23,29.86,10.0,NW,5.8,-,N/A,,Clear,320,2013-08-04 04:53:00
10:53 PM,80.1,48.0,32,29.87,10.0,WNW,8.1,-,N/A,,Clear,300,2013-08-04 05:53:00
11:53 PM,77.0,48.9,37,29.88,10.0,NW,6.9,-,N/A,,Clear,310,2013-08-04 06:53:00